{"data":{"norad_id":46275,"epoch":"2026-09-20T00:17:38.889888Z","epoch_age_seconds":112813,"freshness":"FRESH","line1":"1 46275U 20061D   26263.01225567  .00011270  00000+0  19281-3 0  9994","line2":"2 46275  97.1834 327.1121 0002239 100.6614 259.4891 15.51421080336848","mean_motion":15.5142108,"eccentricity":0.0002239,"inclination_deg":97.1834,"raan_deg":327.1121,"arg_perigee_deg":100.6614,"mean_anomaly_deg":259.4891,"bstar":0.00019281,"rev_number":33684,"period_min":92.818127751622,"perigee_km":411.05566184694,"apogee_km":414.09654317424,"semimajor_km":6790.7131025106,"source":"CELESTRAK","updated_at":"2026-09-20T09:00:14.753560Z"}}